Brownwood, TX

2:38 AM CDT on June 29, 2017 (GMT -0500)
Brownwood Regional

Weather History for KBWD - November, 2012

Change the Weather History Date:

Friday, November 9, 2012

  Actual Average (KABI) Record (KABI)
Temperature  
Mean Temperature 71 °F -  
Max Temperature 82 °F 63 °F 90 °F (2006)
Min Temperature 60 °F 44 °F 27 °F (1956)
Cooling Degree Days 6    
Growing Degree Days 21 (Base 50)    
Moisture  
Dew Point 56 °F    
Average Humidity 62    
Maximum Humidity 88    
Minimum Humidity 35    
Precipitation  
Precipitation 0.00 in - - ()
Sea Level Pressure  
Sea Level Pressure 29.98 in    
Wind  
Wind Speed 12 mph (South)    
Max Wind Speed 22 mph    
Max Gust Speed 33 mph    
Visibility 10 miles    
Events      
Averages and records for this station are not official NWS values.
T = Trace of Precipitation, MM = Missing Value Source: NWS Daily Summary

Daily Weather History Graph

Daily Weather History Graph

Search for Another Location

Airport or City:

Trip Planner

Search our weather history database for the weather conditions in past years. The results will help you decide how hot, cold, wet, or windy it might be!

Date:

Astronomy

Nov. 09, 2012 Rise Set
Actual Time 6:59 AM CST 5:39 PM CST
Civil Twilight 6:33 AM CST 6:05 PM CST
Nautical Twilight 6:04 AM CST 6:34 PM CST
Astronomical Twilight 5:35 AM CST 7:03 PM CST
Moon 2:16 AM CST (11/9) 2:39 PM CST (11/9)
Length of Visible Light 11h 31m
Length of Day
10h 40m
Waning Crescent, 23% of the Moon is Illuminated
Nov 9
Waning Crescent
Nov 13
New
Nov 20
First Quarter
Nov 28
Full
Dec 6
Last Quarter

Hourly Weather History & Observations

Time (CST) Temp. Heat Index Dew Point Humidity Pressure Visibility Wind Dir Wind Speed Gust Speed Precip Events Conditions
12:15 AM 66.2 °F - 55.4 °F 68% 30.00 in 10.0 mi SSE 15.0 mph 20.7 mph N/A   Clear
12:35 AM 66.2 °F - 57.2 °F 73% 30.00 in 10.0 mi South 10.4 mph - N/A   Clear
12:55 AM 64.4 °F - 57.2 °F 77% 30.00 in 10.0 mi SSE 9.2 mph 16.1 mph N/A   Clear
1:15 AM 64.4 °F - 57.2 °F 77% 29.99 in 10.0 mi SSE 9.2 mph 17.3 mph N/A   Clear
1:35 AM 64.4 °F - 59.0 °F 83% 30.00 in 10.0 mi North - - N/A   Clear
1:55 AM 64.4 °F - 59.0 °F 83% 30.00 in 10.0 mi North - - N/A   Clear
2:15 AM 64.4 °F - 59.0 °F 83% 30.00 in 10.0 mi SSE 9.2 mph - N/A   Clear
2:35 AM 64.4 °F - 59.0 °F 83% 30.00 in 10.0 mi South 8.1 mph - N/A   Clear
2:55 AM 64.4 °F - 59.0 °F 83% 30.00 in 10.0 mi SSE 10.4 mph - N/A   Clear
3:15 AM 64.4 °F - 59.0 °F 83% 29.99 in 10.0 mi South 9.2 mph - N/A   Clear
3:35 AM 64.4 °F - 59.0 °F 83% 29.99 in 10.0 mi North - - N/A   Clear
3:55 AM 62.6 °F - 59.0 °F 88% 29.99 in 10.0 mi South 9.2 mph - N/A   Clear
4:15 AM 62.6 °F - 59.0 °F 88% 29.99 in 10.0 mi South 9.2 mph - N/A   Clear
4:35 AM 62.6 °F - 59.0 °F 88% 29.99 in 10.0 mi North - - N/A   Clear
4:55 AM 62.6 °F - 59.0 °F 88% 29.99 in 10.0 mi SSE 8.1 mph - N/A   Clear
5:15 AM 62.6 °F - 59.0 °F 88% 29.99 in 10.0 mi North - - N/A   Clear
5:35 AM 62.6 °F - 57.2 °F 82% 29.99 in 10.0 mi North - - N/A   Clear
5:55 AM 62.6 °F - 57.2 °F 82% 29.99 in 10.0 mi SSE 9.2 mph - N/A   Clear
6:15 AM 60.8 °F - 57.2 °F 88% 29.99 in 10.0 mi SSE 9.2 mph - N/A   Partly Cloudy
6:35 AM 60.8 °F - 57.2 °F 88% 29.99 in 10.0 mi SSE 11.5 mph - N/A   Clear
6:55 AM 60.8 °F - 57.2 °F 88% 29.99 in 10.0 mi SSE 8.1 mph - N/A   Clear
7:15 AM 60.8 °F - 57.2 °F 88% 30.00 in 7.0 mi SSE 6.9 mph - N/A   Clear
7:35 AM 60.8 °F - 57.2 °F 88% 30.01 in 7.0 mi South 6.9 mph - N/A   Clear
7:55 AM 62.6 °F - 57.2 °F 82% 30.01 in 10.0 mi SSE 8.1 mph - N/A   Clear
8:15 AM 64.4 °F - 59.0 °F 83% 30.02 in 10.0 mi South 8.1 mph - N/A   Clear
8:35 AM 64.4 °F - 59.0 °F 83% 30.02 in 10.0 mi SSE 8.1 mph - N/A   Clear
8:55 AM 66.2 °F - 59.0 °F 78% 30.02 in 10.0 mi South 11.5 mph - N/A   Partly Cloudy
9:15 AM 68.0 °F - 59.0 °F 73% 30.03 in 10.0 mi South 11.5 mph 18.4 mph N/A   Mostly Cloudy
9:35 AM 71.6 °F - 59.0 °F 64% 30.04 in 10.0 mi SSW 17.3 mph 20.7 mph N/A   Mostly Cloudy
9:55 AM 71.6 °F - 59.0 °F 64% 30.04 in 10.0 mi SSW 15.0 mph 25.3 mph N/A   Scattered Clouds
10:15 AM 73.4 °F - 57.2 °F 57% 30.03 in 10.0 mi SSW 18.4 mph 27.6 mph N/A   Clear
10:35 AM 75.2 °F - 57.2 °F 53% 30.03 in 10.0 mi SSW 18.4 mph 23.0 mph N/A   Clear
10:55 AM 75.2 °F - 55.4 °F 50% 30.02 in 10.0 mi South 17.3 mph 25.3 mph N/A   Clear
11:15 AM 77.0 °F - 55.4 °F 47% 30.02 in 10.0 mi South 21.9 mph 27.6 mph N/A   Clear
11:35 AM 77.0 °F - 55.4 °F 47% 30.01 in 10.0 mi SSW 17.3 mph 28.8 mph N/A   Clear
11:55 AM 77.0 °F - 55.4 °F 47% 30.00 in 10.0 mi South 18.4 mph 27.6 mph N/A   Clear
12:15 PM 80.6 °F 80.5 °F 55.4 °F 42% 29.99 in 10.0 mi South 17.3 mph 24.2 mph N/A   Clear
12:35 PM 78.8 °F - 55.4 °F 44% 29.98 in 10.0 mi SSW 19.6 mph 31.1 mph N/A   Clear
12:55 PM 80.6 °F 80.5 °F 55.4 °F 42% 29.96 in 10.0 mi South 20.7 mph 31.1 mph N/A   Clear
1:15 PM 80.6 °F 80.5 °F 55.4 °F 42% 29.94 in 10.0 mi South 19.6 mph 33.4 mph N/A   Clear
1:35 PM 80.6 °F 80.3 °F 53.6 °F 39% 29.93 in 10.0 mi South 18.4 mph 27.6 mph N/A   Clear
1:55 PM 82.4 °F 81.4 °F 53.6 °F 37% 29.93 in 9.0 mi SSW 21.9 mph 32.2 mph N/A   Clear
2:15 PM 82.4 °F 81.4 °F 53.6 °F 37% 29.93 in 10.0 mi South 18.4 mph 24.2 mph N/A   Clear
2:35 PM 82.4 °F 81.4 °F 53.6 °F 37% 29.92 in 10.0 mi South 20.7 mph 27.6 mph N/A   Clear
2:55 PM 82.4 °F 81.4 °F 53.6 °F 37% 29.92 in 10.0 mi South 17.3 mph 26.5 mph N/A   Clear
3:15 PM 82.4 °F - 51.8 °F 35% 29.92 in 10.0 mi South 21.9 mph 32.2 mph N/A   Clear
3:55 PM 82.4 °F - 51.8 °F 35% 29.91 in 10.0 mi South 20.7 mph 26.5 mph N/A   Clear
4:15 PM 80.6 °F 80.3 °F 53.6 °F 39% 29.91 in 10.0 mi South 18.4 mph 25.3 mph N/A   Clear
4:35 PM 80.6 °F 80.3 °F 53.6 °F 39% 29.92 in 10.0 mi South 16.1 mph 24.2 mph N/A   Clear
4:55 PM 78.8 °F - 53.6 °F 42% 29.92 in 10.0 mi SSE 16.1 mph 20.7 mph N/A   Clear
5:15 PM 77.0 °F - 53.6 °F 44% 29.92 in 10.0 mi SSE 12.7 mph - N/A   Clear
5:35 PM 77.0 °F - 53.6 °F 44% 29.92 in 10.0 mi SSE 10.4 mph - N/A   Clear
5:55 PM 75.2 °F - 53.6 °F 47% 29.93 in 10.0 mi SSE 9.2 mph - N/A   Clear
6:15 PM 75.2 °F - 53.6 °F 47% 29.93 in 10.0 mi SSE 10.4 mph - N/A   Clear
6:35 PM 73.4 °F - 53.6 °F 50% 29.94 in 10.0 mi North - - N/A   Clear
6:55 PM 73.4 °F - 53.6 °F 50% 29.95 in 10.0 mi North - - N/A   Clear
7:15 PM 73.4 °F - 53.6 °F 50% 29.95 in 10.0 mi SSE 12.7 mph 17.3 mph N/A   Clear
7:35 PM 73.4 °F - 53.6 °F 50% 29.96 in 10.0 mi SSE 10.4 mph - N/A   Clear
7:55 PM 73.4 °F - 53.6 °F 50% 29.96 in 10.0 mi SSE 8.1 mph - N/A   Clear
8:15 PM 71.6 °F - 53.6 °F 53% 29.97 in 10.0 mi SSE 9.2 mph - N/A   Clear
8:35 PM 71.6 °F - 55.4 °F 57% 29.97 in 10.0 mi SSE 9.2 mph - N/A   Clear
8:55 PM 71.6 °F - 55.4 °F 57% 29.97 in 10.0 mi SSE 10.4 mph - N/A   Clear
9:35 PM 69.8 °F - 55.4 °F 60% 29.98 in 10.0 mi SSE 11.5 mph 19.6 mph N/A   Partly Cloudy
9:55 PM 71.6 °F - 55.4 °F 57% 29.99 in 10.0 mi SSE 11.5 mph - N/A   Partly Cloudy
10:15 PM 71.6 °F - 55.4 °F 57% 29.99 in 10.0 mi SSE 12.7 mph 18.4 mph N/A   Clear
10:55 PM 69.8 °F - 55.4 °F 60% 29.99 in 10.0 mi SSE 13.8 mph - N/A   Partly Cloudy
11:15 PM 68.0 °F - 53.6 °F 60% 29.99 in 10.0 mi SSE 10.4 mph 17.3 mph N/A   Partly Cloudy
11:35 PM 68.0 °F - 53.6 °F 60% 29.99 in 10.0 mi SSE 10.4 mph - N/A   Clear
11:55 PM 68.0 °F - 53.6 °F 60% 29.98 in 10.0 mi SSE 13.8 mph 21.9 mph N/A   Partly Cloudy